Location: Crescent
(42.8242°N, 73.7329°W)
Time: 06:47:31
(UTC+00:00)

Transit 4A - Pass Details

Date: 20 February 2026
Orbit: 864 x 977 km, 66.8° (Epoch: 9 March)

Event Time Altitude Azimuth Distance (km) Brightness Sun altitude
Rises 07:35:26 0° 194° (SSW) 3,439 - -44.9°
Reaches altitude 10° 07:37:55 10° 190° (S) 2,515 - -44.5°
Maximum altitude 07:43:34 55° 114° (ESE) 1,063 - -43.6°
Exits shadow 07:47:38 20° 44° (NE) 1,974 10.0 -43.0°
Drops below altitude 10° 07:49:23 10° 39° (NE) 2,593 10.8 -42.7°
Sets 07:51:59 0° 35° (NE) 3,557 11.6 -42.3°
